DW4776 Weather Reports


Display with metric or nautical units.
time (UTC)temp
F
wind
direction
speed
MPH
gust
MPH
rain 1hr
in
rain 24hr
in
rain mn
in
humidity
%
barometer
mb
20220924190136 67 235 3.0 12.0 0.00 0.00 0.00 33 1016.7
20220924184336 66 252 3.0 15.0 0.00 0.00 0.00 33 1016.6
20220924183436 66 249 1.0 8.0 0.00 0.00 0.00 33 1016.7
20220924182536 66 240 2.0 12.0 0.00 0.00 0.00 34 1016.6
20220924175835 66 258 3.0 11.0 0.00 0.00 0.00 34 1016.6
20220924174936 66 259 2.0 9.0 0.00 0.00 0.00 35 1016.5
20220924174035 66 259 3.0 10.0 0.00 0.00 0.00 35 1016.5
20220924173136 65 259 0.0 5.0 0.00 0.00 0.00 36 1016.3
20220924172236 65 259 0.0 5.0 0.00 0.00 0.00 36 1016.2
20220924171335 65 259 0.0 4.0 0.00 0.00 0.00 36 1016.3
20220924170435 64 259 0.0 6.0 0.00 0.00 0.00 37 1016.3
20220924165536 64 259 0.0 4.0 0.00 0.00 0.00 37 1016.2
20220924164636 64 258 1.0 8.0 0.00 0.00 0.00 37 1016.3
20220924163735 64 257 3.0 11.0 0.00 0.00 0.00 37 1016.2
20220924162836 64 257 3.0 10.0 0.00 0.00 0.00 38 1016.1
20220924161936 63 257 2.0 8.0 0.00 0.00 0.00 38 1016.1
20220924161036 63 257 1.0 9.0 0.00 0.00 0.00 38 1016.0
20220924154336 61 257 2.0 8.0 0.00 0.00 0.00 45 1015.7
20220924153435 60 257 2.0 8.0 0.00 0.00 0.00 46 1015.7
20220924151636 58 257 2.0 6.0 0.00 0.00 0.00 50 1015.6
20220924145836 56 257 3.0 6.0 0.00 0.00 0.00 54 1015.4
20220924144935 55 257 2.0 6.0 0.00 0.00 0.00 57 1015.3
20220924144036 53 257 1.0 6.0 0.00 0.00 0.00 59 1015.2
20220924142235 50 0 0.0 0.0 0.00 0.00 0.00 65 1015.1
20220924133735 48 0 0.0 0.0 0.00 0.00 0.00 66 1014.8
20220924131935 48 0 0.0 0.0 0.00 0.00 0.00 67 1014.5
20220924130135 48 0 0.0 0.0 0.00 0.00 0.00 65 1014.2
20220924125235 49 0 0.0 0.0 0.00 0.00 0.00 64 1014.0
20220924124335 49 257 0.0 1.0 0.00 0.00 0.00 63 1014.0
20220924123435 50 257 0.0 3.0 0.00 0.00 0.00 63 1013.9
20220924121635 48 257 0.0 4.0 0.00 0.00 0.00 66 1013.8
20220924115835 48 257 0.0 4.0 0.00 0.00 0.00 66 1013.6
20220924114035 46 257 0.0 1.0 0.00 0.00 0.00 69 1013.4
20220924113135 46 257 0.0 1.0 0.00 0.00 0.00 70 1013.5
20220924112235 45 0 0.0 0.0 0.00 0.00 0.00 69 1013.5
20220924111335 45 0 0.0 0.0 0.00 0.00 0.00 68 1013.4
20220924110435 46 257 0.0 3.0 0.00 0.00 0.00 68 1013.4
20220924105535 46 0 0.0 0.0 0.00 0.00 0.00 67 1013.2
20220924104635 47 0 0.0 0.0 0.00 0.00 0.00 66 1013.2
20220924103735 47 0 0.0 0.0 0.00 0.00 0.00 66 1013.0
20220924102835 47 0 0.0 0.0 0.00 0.00 0.00 65 1012.9
20220924101935 48 0 0.0 0.0 0.00 0.00 0.00 66 1012.8
20220924101035 48 0 0.0 0.0 0.00 0.00 0.00 65 1012.7
20220924095235 48 0 0.0 0.0 0.00 0.00 0.00 65 1012.6
20220924094335 49 0 0.0 0.0 0.00 0.00 0.00 63 1012.5
20220924084935 51 257 0.0 2.0 0.00 0.00 0.00 61 1012.1
20220924084035 52 257 0.0 3.0 0.00 0.00 0.00 61 1012.0
20220924082235 52 0 0.0 0.0 0.00 0.00 0.00 60 1012.0
20220924081335 52 0 0.0 0.0 0.00 0.00 0.00 60 1012.0
20220924080435 52 0 0.0 0.0 0.00 0.00 0.00 60 1012.0
20220924075535 52 0 0.0 0.0 0.00 0.00 0.00 60 1011.9
20220924074635 52 0 0.0 0.0 0.00 0.00 0.00 60 1011.9
20220924073735 52 0 0.0 0.0 0.00 0.00 0.00 60 1011.8
20220924072835 52 0 0.0 0.0 0.00 0.00 0.00 60 1011.7
20220924071035 52 0 0.0 0.0 0.00 0.00 0.00 60 1011.8
20220924070135 52 0 0.0 0.0 0.00 0.00 0.00 60 1011.7
20220924065235 52 0 0.0 0.0 0.00 0.00 0.00 60 1011.7
20220924063435 52 0 0.0 0.0 0.00 0.00 0.00 59 1011.6
20220924062535 53 253 0.0 5.0 0.00 0.00 0.00 58 1011.6
20220924061635 54 253 0.0 3.0 0.00 0.00 0.00 57 1011.6
20220924060735 54 253 0.0 5.0 0.00 0.00 0.00 56 1011.6
20220924054935 55 253 0.0 4.0 0.00 0.00 0.00 54 1011.7
20220924054035 56 253 1.0 9.0 0.00 0.00 0.00 54 1011.7
20220924052234 56 259 0.0 3.0 0.00 0.00 0.00 54 1011.4
20220924051334 56 121 4.0 13.0 0.00 0.00 0.00 53 1011.4
20220924050435 56 131 4.0 10.0 0.00 0.00 0.00 54 1011.3
20220924045535 55 234 4.0 8.0 0.00 0.00 0.00 54 1011.4
20220924044635 56 129 3.0 8.0 0.00 0.00 0.00 54 1011.3
20220924043735 56 253 1.0 6.0 0.00 0.00 0.00 54 1011.3
20220924040135 56 119 2.0 9.0 0.00 0.00 0.00 52 1011.5
20220924035235 56 123 1.0 7.0 0.00 0.00 0.00 52 1011.4
20220924034335 56 259 2.0 7.0 0.00 0.00 0.00 51 1011.5
20220924033434 57 122 4.0 5.0 0.00 0.00 0.00 50 1011.4
20220924032535 57 126 4.0 11.0 0.00 0.00 0.00 50 1011.3
20220924031634 57 125 4.0 10.0 0.00 0.00 0.00 50 1011.2
20220924024934 57 173 4.0 10.0 0.00 0.00 0.00 49 1011.0
20220924024035 58 120 5.0 13.0 0.00 0.00 0.00 49 1010.8
20220924023134 58 123 5.0 15.0 0.00 0.00 0.00 48 1010.7
20220924015534 59 120 5.0 8.0 0.00 0.00 0.00 45 1009.9
20220924013735 60 127 6.0 10.0 0.00 0.00 0.00 45 1009.7
20220924012834 60 151 5.0 15.0 0.00 0.00 0.00 46 1009.7
20220924011934 60 203 5.0 10.0 0.00 0.00 0.00 46 1009.8
20220924005234 61 147 6.0 14.0 0.00 0.00 0.00 43 1009.0
20220924004334 61 151 5.0 8.0 0.00 0.00 0.00 43 1009.2
20220924003434 61 129 5.0 10.0 0.00 0.00 0.00 43 1009.3
20220924002534 62 123 5.0 7.0 0.00 0.00 0.00 43 1009.2
20220924001634 63 124 5.0 7.0 0.00 0.00 0.00 41 1009.3
20220923234034 65 122 5.0 8.0 0.00 0.00 0.00 36 1008.9
20220923233134 65 120 5.0 8.0 0.00 0.00 0.00 33 1008.8
20220923232234 66 121 5.0 11.0 0.00 0.00 0.00 31 1008.8
20220923224634 68 119 5.0 6.0 0.00 0.00 0.00 30 1008.3
20220923223734 69 120 5.0 8.0 0.00 0.00 0.00 29 1008.2
20220923221934 70 121 5.0 6.0 0.00 0.00 0.00 28 1008.3
20220923221034 70 120 5.0 6.0 0.00 0.00 0.00 28 1008.3
20220923214334 71 121 5.0 7.0 0.00 0.00 0.00 28 1008.3
20220923213434 71 120 5.0 8.0 0.00 0.00 0.00 28 1008.2
20220923211634 71 123 4.0 10.0 0.00 0.00 0.00 27 1008.2
20220923205834 71 163 4.0 12.0 0.00 0.00 0.00 26 1008.0
20220923204934 71 165 5.0 18.0 0.00 0.00 0.00 26 1008.0
20220923204034 71 121 4.0 10.0 0.00 0.00 0.00 27 1008.1
20220923203134 71 123 5.0 22.0 0.00 0.00 0.00 26 1008.0
20220923202234 71 141 6.0 12.0 0.00 0.00 0.00 26 1008.1
20220923201334 71 141 5.0 11.0 0.00 0.00 0.00 26 1008.0
20220923200434 71 141 5.0 10.0 0.00 0.00 0.00 26 1007.8
20220923195534 71 122 5.0 9.0 0.00 0.00 0.00 27 1007.9
20220923193734 71 132 4.0 11.0 0.00 0.00 0.00 26 1007.9
20220923192834 70 243 3.0 12.0 0.00 0.00 0.00 27 1008.0
20220923191934 71 254 3.0 12.0 0.00 0.00 0.00 27 1007.9
20220923191034 70 207 3.0 10.0 0.00 0.00 0.00 27 1007.9